Find Starlink 31548

NORAD ID: 59193 Int'l Des: 2024-045 Owner: SPXS Country: US Constellation: starlink operational
LEOCIRCULAR

Current View

Loading 3D Globe...

About Starlink 31548

Starlink 31548 (NORAD 59193) is a starlink constellation satellite (v2 mini) launched Mar 11, 2024 by SPXS of US. It operates in LEO, CIRCULAR orbit with a mass of 730.00 kg.

Upcoming Passes

Passes for default location (London). Set your location on the main map for personalized predictions.

Altitude History

Loading altitude history...

Two-Line Element Set

1 59193U 24045R 26237.95284907 -.00000793 00000-0 -19224-4 0 9999
2 59193 42.9980 217.0072 0004778 311.6192 48.4250 15.27569529139040
Epoch: Aug 25, 2026 • Age: 18 hours

Current Status

Altitude 494.0 km
Apogee / Perigee N/A
Velocity 7.62 km/s
Sub-Earth Point -40.87°S, 133.44°W
Launch Date Mar 11, 2024
Age 2.4 years
Type internet

Technical Details

Classification Payload
Mass 730.00 kg
Dry Mass 700.00 kg
Total Mass 730.00 kg
Length 0.30 m
Diameter 4.10 m
Span 29.00 m
Shape Box + pan
Manufacturer SPXS
Bus Type Starlink V2M
Phase Status In Orbit
Owner/State SPXS/US

Most Searched